Location: Newark
(23.1300°N, 73.6109°E)
Time: 09:44:13
(UTC+00:00)

NOAA 18 - Visible Passes

Search period start: 17 June 2021 00:00
Search period end: 27 June 2021 00:00
Orbit: 841 x 860 km, 99.0° (Epoch: 17 June)

Date Brightness Start Highest point End Pass type
(mag) Time Alt. Az. Time Alt. Az. Time Alt. Az.
17 Jun 6.2 15:55:56 31° ENE 15:55:56 31° ENE 16:00:24 10° NNE visible
17 Jun 7.3 17:37:56 19° WNW 17:37:56 19° WNW 17:40:23 10° NW visible
18 Jun 6.5 15:43:51 23° ENE 15:43:51 23° ENE 15:48:05 10° NNE visible
18 Jun 7.0 17:25:51 26° WNW 17:25:51 26° WNW 17:29:00 10° NW visible
19 Jun 6.8 15:31:46 18° ENE 15:32:01 18° ENE 15:35:33 10° NNE visible
19 Jun 6.6 17:13:46 34° WNW 17:13:46 34° WNW 17:17:26 10° NNW visible
20 Jun 7.1 15:19:42 13° ENE 15:20:14 13° ENE 15:22:39 10° NE visible
20 Jun 6.2 17:01:41 44° NW 17:01:41 44° NW 17:05:45 10° NNW visible
21 Jun 5.8 16:49:36 55° NW 16:49:36 55° NW 16:53:58 10° NNW visible
22 Jun 5.5 16:37:32 61° N 16:37:32 61° N 16:42:05 10° N visible
23 Jun 5.5 16:25:28 56° NE 16:25:28 56° NE 16:30:08 10° N visible
24 Jun 5.7 16:13:24 45° NE 16:13:24 45° NE 16:18:05 10° N visible
24 Jun 7.7 17:55:23 13° WNW 17:55:23 13° WNW 17:56:31 10° WNW visible
25 Jun 6.1 16:01:20 34° ENE 16:01:20 34° ENE 16:05:56 10° N visible
25 Jun 7.5 17:43:19 17° WNW 17:43:19 17° WNW 17:45:32 10° NW visible
26 Jun 6.4 15:49:16 26° ENE 15:49:16 26° ENE 15:53:40 10° NNE visible
26 Jun 7.1 17:31:15 23° WNW 17:31:15 23° WNW 17:34:14 10° NW visible
